This is the latest recevied weather packets stored in our database for station/object KE0LFX. If no packets are shown the sender has not sent any weather packets the latest 10 day(s).
| Time | Temp. | Humidity | Pressure | Rain* | Wind** | Luminosity | Snow |
|---|---|---|---|---|---|---|---|
| 1777167539 | 17.78° C | 61% | 1018.3 hPa | 0 mm | - | 0 W/m² | - |
| 1777167234 | 17.78° C | 60% | 1018.2 hPa | 0 mm | - | 0 W/m² | - |
| 1777166925 | 17.78° C | 60% | 1018.3 hPa | 0 mm | - | 0 W/m² | - |
| 1777166625 | 17.78° C | 60% | 1018.3 hPa | 0 mm | - | 0 W/m² | - |
| 1777166321 | 17.78° C | 60% | 1018.1 hPa | 0 mm | - | 0 W/m² | - |
| 1777166017 | 17.78° C | 60% | 1018.3 hPa | 0 mm | - | 0 W/m² | - |
| 1777165716 | 17.78° C | 61% | 1018.1 hPa | 0 mm | - | 0 W/m² | - |
| 1777165412 | 18.33° C | 60% | 1018.2 hPa | 0 mm | - | 0 W/m² | - |
| 1777165108 | 18.33° C | 59% | 1017.9 hPa | 0 mm | - | 1 W/m² | - |
| 1777164803 | 18.89° C | 59% | 1018.1 hPa | 0 mm | - | 3 W/m² | - |
| 1777164501 | 18.89° C | 59% | 1017.7 hPa | 0 mm | - | 5 W/m² | - |
| 1777164196 | 18.89° C | 58% | 1017.8 hPa | 0 mm | - | 8 W/m² | - |
| 1777163891 | 18.89° C | 57% | 1017.7 hPa | 0 mm | - | 12 W/m² | - |
| 1777163590 | 19.44° C | 57% | 1017.8 hPa | 0 mm | - | 16 W/m² | - |
| 1777163281 | 19.44° C | 57% | 1017.8 hPa | 0 mm | - | 21 W/m² | - |
| 1777162977 | 19.44° C | 57% | 1017.8 hPa | 0 mm | - | 26 W/m² | - |
| 1777162677 | 19.44° C | 56% | 1018.1 hPa | 0 mm | - | 29 W/m² | - |
| 1777162372 | 19.44° C | 57% | 1018 hPa | 0 mm | - | 31 W/m² | - |
| 1777162066 | 19.44° C | 56% | 1018.1 hPa | 0 mm | - | 34 W/m² | - |
| 1777161762 | 20° C | 55% | 1018.3 hPa | 0 mm | - | 39 W/m² | - |
| 1777161459 | 20° C | 55% | 1018.1 hPa | 0 mm | - | 45 W/m² | - |
| 1777161154 | 20° C | 55% | 1018.1 hPa | 0 mm | - | 50 W/m² | - |
| 1777160851 | 20° C | 55% | 1018.1 hPa | 0 mm | - | 59 W/m² | - |
| 1777160547 | 20° C | 54% | 1018.2 hPa | 0 mm | - | 64 W/m² | - |
| 1777160243 | 20° C | 54% | 1018.1 hPa | 0 mm | - | 60 W/m² | - |
* Rain latest hour (hover to see other rain measurements)
** Current wind speed in m/s (hover to see current wind gust speed)